Time,TemperatureF,DewpointF,PressureIn,WindDirection,WindDirectionDegrees,WindSpeedMPH,WindSpeedGustMPH,Humidity,HourlyPrecipIn,Conditions,Clouds,dailyrainin,SolarRadiationWatts/m^2,SoftwareType,DateUTC
2013-01-27 00:04:00,69.0,64.0,-100.00,NNE,32,4.0,8.0,83,0.00,,,0.00,0.000000,,2013-01-27 05:04:00,
2013-01-27 00:12:00,69.0,64.0,-100.00,NNE,32,4.0,8.0,83,0.00,,,0.00,0.000000,,2013-01-27 05:12:00,
2013-01-27 00:22:00,69.0,64.0,-100.00,NNE,32,4.0,8.0,83,0.00,,,0.00,0.000000,,2013-01-27 05:22:00,
2013-01-27 00:32:00,69.0,64.0,-100.00,NNE,32,4.0,8.0,83,0.00,,,0.00,0.000000,,2013-01-27 05:32:00,
2013-01-27 01:02:00,69.0,64.0,-100.00,NNE,19,5.0,9.0,85,0.00,,,0.00,0.000000,,2013-01-27 06:02:00,
2013-01-27 01:11:00,69.0,64.0,-100.00,NNE,19,5.0,9.0,85,0.00,,,0.00,0.000000,,2013-01-27 06:11:00,
2013-01-27 01:21:00,69.0,64.0,-100.00,NNE,19,5.0,9.0,85,0.00,,,0.00,0.000000,,2013-01-27 06:21:00,
2013-01-27 01:32:00,69.0,64.0,-100.00,NNE,19,5.0,9.0,85,0.00,,,0.00,0.000000,,2013-01-27 06:32:00,
2013-01-27 02:01:00,70.0,65.0,-100.00,NE,36,6.0,11.0,84,0.00,,,0.00,0.000000,,2013-01-27 07:01:00,
2013-01-27 02:14:00,70.0,65.0,-100.00,NE,36,6.0,11.0,84,0.00,,,0.00,0.000000,,2013-01-27 07:14:00,
2013-01-27 02:21:00,70.0,65.0,-100.00,NE,36,6.0,11.0,84,0.00,,,0.00,0.000000,,2013-01-27 07:21:00,
2013-01-27 02:32:00,70.0,65.0,-100.00,NE,36,6.0,11.0,84,0.00,,,0.00,0.000000,,2013-01-27 07:32:00,
2013-01-27 02:52:00,70.0,66.0,-100.00,ENE,59,7.0,12.0,86,0.00,,,0.00,0.000000,,2013-01-27 07:52:00,
2013-01-27 03:02:00,70.0,66.0,-100.00,ENE,59,7.0,12.0,86,0.00,,,0.00,0.000000,,2013-01-27 08:02:00,
2013-01-27 03:12:00,70.0,66.0,-100.00,ENE,59,7.0,12.0,86,0.00,,,0.00,0.000000,,2013-01-27 08:12:00,
2013-01-27 03:22:00,70.0,66.0,-100.00,ENE,59,7.0,12.0,86,0.00,,,0.00,0.000000,,2013-01-27 08:22:00,
2013-01-27 03:32:00,70.0,66.0,-100.00,ENE,59,7.0,12.0,86,0.00,,,0.00,0.000000,,2013-01-27 08:32:00,
2013-01-27 04:03:00,71.0,66.0,-100.00,ENE,57,7.0,13.0,84,0.00,,,0.00,0.000000,,2013-01-27 09:03:00,
2013-01-27 04:11:00,71.0,66.0,-100.00,ENE,57,7.0,13.0,84,0.00,,,0.00,0.000000,,2013-01-27 09:11:00,
2013-01-27 04:22:00,71.0,66.0,-100.00,ENE,57,7.0,13.0,84,0.00,,,0.00,0.000000,,2013-01-27 09:22:00,
2013-01-27 04:32:00,71.0,66.0,-100.00,ENE,57,7.0,13.0,84,0.00,,,0.00,0.000000,,2013-01-27 09:32:00,
2013-01-27 04:52:00,71.0,66.0,-100.00,ENE,61,7.0,13.0,85,0.00,,,0.00,0.000000,,2013-01-27 09:52:00,
2013-01-27 05:01:00,71.0,66.0,-100.00,ENE,61,7.0,13.0,85,0.00,,,0.00,0.000000,,2013-01-27 10:01:00,
2013-01-27 05:11:00,71.0,66.0,-100.00,ENE,61,7.0,13.0,85,0.00,,,0.00,0.000000,,2013-01-27 10:11:00,
2013-01-27 05:21:00,71.0,66.0,-100.00,ENE,61,7.0,13.0,85,0.00,,,0.00,0.000000,,2013-01-27 10:21:00,
2013-01-27 05:32:00,71.0,66.0,-100.00,ENE,61,7.0,13.0,85,0.00,,,0.00,0.000000,,2013-01-27 10:32:00,
2013-01-27 05:52:00,71.0,67.0,-100.00,NE,50,7.0,12.0,86,0.00,,,0.00,0.000000,,2013-01-27 10:52:00,
2013-01-27 06:01:00,71.0,67.0,-100.00,NE,50,7.0,12.0,86,0.00,,,0.00,0.000000,,2013-01-27 11:01:00,
2013-01-27 06:11:00,71.0,67.0,-100.00,NE,50,7.0,12.0,86,0.00,,,0.00,0.000000,,2013-01-27 11:11:00,
2013-01-27 06:22:00,71.0,67.0,-100.00,NE,50,7.0,12.0,86,0.00,,,0.00,0.000000,,2013-01-27 11:22:00,
2013-01-27 06:32:00,71.0,67.0,-100.00,NE,50,7.0,12.0,86,0.00,,,0.00,0.000000,,2013-01-27 11:32:00,
2013-01-27 06:52:00,70.0,66.0,-100.00,ENE,58,6.0,14.0,88,0.00,,,0.00,0.000000,,2013-01-27 11:52:00,
2013-01-27 07:02:00,70.0,66.0,-100.00,ENE,58,6.0,14.0,88,0.00,,,0.00,0.000000,,2013-01-27 12:02:00,
2013-01-27 07:12:00,70.0,66.0,-100.00,ENE,58,6.0,14.0,88,0.00,,,0.00,0.000000,,2013-01-27 12:12:00,
2013-01-27 07:22:00,70.0,66.0,-100.00,ENE,58,6.0,14.0,88,0.00,,,0.00,0.000000,,2013-01-27 12:22:00,
2013-01-27 07:32:00,70.0,66.0,-100.00,ENE,58,6.0,14.0,88,0.00,,,0.00,0.000000,,2013-01-27 12:32:00,
2013-01-27 08:02:00,71.0,67.0,-100.00,ENE,67,8.0,15.0,86,0.00,,,0.00,5.000000,,2013-01-27 13:02:00,
2013-01-27 08:12:00,71.0,67.0,-100.00,ENE,67,8.0,15.0,86,0.00,,,0.00,5.000000,,2013-01-27 13:12:00,
2013-01-27 08:22:00,71.0,67.0,-100.00,ENE,67,8.0,15.0,86,0.00,,,0.00,5.000000,,2013-01-27 13:22:00,
2013-01-27 08:32:00,71.0,67.0,-100.00,ENE,67,8.0,15.0,86,0.00,,,0.00,5.000000,,2013-01-27 13:32:00,
2013-01-27 08:52:00,71.0,67.0,-100.00,NE,52,8.0,15.0,86,0.00,,,0.00,46.000000,,2013-01-27 13:52:00,
2013-01-27 09:02:00,71.0,67.0,-100.00,NE,52,8.0,15.0,86,0.00,,,0.00,46.000000,,2013-01-27 14:02:00,
2013-01-27 09:12:00,71.0,67.0,-100.00,NE,52,8.0,15.0,86,0.00,,,0.00,46.000000,,2013-01-27 14:12:00,
2013-01-27 09:22:00,71.0,67.0,-100.00,NE,52,8.0,15.0,86,0.00,,,0.00,46.000000,,2013-01-27 14:22:00,
2013-01-27 09:33:00,71.0,67.0,-100.00,NE,52,8.0,15.0,86,0.00,,,0.00,46.000000,,2013-01-27 14:33:00,
2013-01-27 10:12:00,73.0,67.0,-100.00,NE,53,8.0,15.0,82,0.00,,,0.00,171.000000,,2013-01-27 15:12:00,
2013-01-27 10:22:00,73.0,67.0,-100.00,NE,53,8.0,15.0,82,0.00,,,0.00,171.000000,,2013-01-27 15:22:00,
2013-01-27 10:32:00,73.0,67.0,-100.00,NE,53,8.0,15.0,82,0.00,,,0.00,171.000000,,2013-01-27 15:32:00,
2013-01-27 10:53:00,74.0,68.0,-100.00,ENE,65,7.0,17.0,81,0.00,,,0.00,223.000000,,2013-01-27 15:53:00,
2013-01-27 11:03:00,74.0,68.0,-100.00,ENE,65,7.0,17.0,81,0.00,,,0.00,223.000000,,2013-01-27 16:03:00,
2013-01-27 11:12:00,74.0,68.0,-100.00,ENE,65,7.0,17.0,81,0.00,,,0.00,223.000000,,2013-01-27 16:12:00,
2013-01-27 11:22:00,74.0,68.0,-100.00,ENE,65,7.0,17.0,81,0.00,,,0.00,223.000000,,2013-01-27 16:22:00,
2013-01-27 11:32:00,74.0,68.0,-100.00,ENE,65,7.0,17.0,81,0.00,,,0.00,223.000000,,2013-01-27 16:32:00,
2013-01-27 12:02:00,74.0,67.0,-100.00,ENE,64,7.0,13.0,80,0.00,,,0.00,275.000000,,2013-01-27 17:02:00,
2013-01-27 12:12:00,74.0,67.0,-100.00,ENE,64,7.0,13.0,80,0.00,,,0.00,275.000000,,2013-01-27 17:12:00,
2013-01-27 12:22:00,74.0,67.0,-100.00,ENE,64,7.0,13.0,80,0.00,,,0.00,275.000000,,2013-01-27 17:22:00,
2013-01-27 12:32:00,74.0,67.0,-100.00,ENE,64,7.0,13.0,80,0.00,,,0.00,275.000000,,2013-01-27 17:32:00,
2013-01-27 12:53:00,76.0,68.0,-100.00,ENE,69,7.0,13.0,76,0.00,,,0.00,342.000000,,2013-01-27 17:53:00,
2013-01-27 13:03:00,76.0,68.0,-100.00,ENE,69,7.0,13.0,76,0.00,,,0.00,342.000000,,2013-01-27 18:03:00,
2013-01-27 13:12:00,76.0,68.0,-100.00,ENE,69,7.0,13.0,76,0.00,,,0.00,342.000000,,2013-01-27 18:12:00,
2013-01-27 13:23:00,76.0,68.0,-100.00,ENE,69,7.0,13.0,76,0.00,,,0.00,342.000000,,2013-01-27 18:23:00,
2013-01-27 13:32:00,76.0,68.0,-100.00,ENE,69,7.0,13.0,76,0.00,,,0.00,342.000000,,2013-01-27 18:32:00,
2013-01-27 14:02:00,79.0,68.0,-100.00,ENE,78,9.0,18.0,68,0.00,,,0.00,472.000000,,2013-01-27 19:02:00,
2013-01-27 14:12:00,79.0,68.0,-100.00,ENE,78,9.0,18.0,68,0.00,,,0.00,472.000000,,2013-01-27 19:12:00,
2013-01-27 14:22:00,79.0,68.0,-100.00,ENE,78,9.0,18.0,68,0.00,,,0.00,472.000000,,2013-01-27 19:22:00,
2013-01-27 14:32:00,79.0,68.0,-100.00,ENE,78,9.0,18.0,68,0.00,,,0.00,472.000000,,2013-01-27 19:32:00,
2013-01-27 14:52:00,78.0,67.0,-100.00,ENE,77,11.0,19.0,70,0.00,,,0.00,421.000000,,2013-01-27 19:52:00,
2013-01-27 15:03:00,78.0,67.0,-100.00,ENE,77,11.0,19.0,70,0.00,,,0.00,421.000000,,2013-01-27 20:03:00,
2013-01-27 15:12:00,78.0,67.0,-100.00,ENE,77,11.0,19.0,70,0.00,,,0.00,421.000000,,2013-01-27 20:12:00,
2013-01-27 15:22:00,78.0,67.0,-100.00,ENE,77,11.0,19.0,70,0.00,,,0.00,421.000000,,2013-01-27 20:22:00,
2013-01-27 15:33:00,78.0,67.0,-100.00,ENE,77,11.0,19.0,70,0.00,,,0.00,421.000000,,2013-01-27 20:33:00,
2013-01-27 16:02:00,77.0,67.0,-100.00,East,85,11.0,20.0,71,0.00,,,0.00,475.000000,,2013-01-27 21:02:00,
2013-01-27 16:12:00,77.0,67.0,-100.00,East,85,11.0,20.0,71,0.00,,,0.00,475.000000,,2013-01-27 21:12:00,
2013-01-27 16:22:00,77.0,67.0,-100.00,East,85,11.0,20.0,71,0.00,,,0.00,475.000000,,2013-01-27 21:22:00,
2013-01-27 16:33:00,77.0,67.0,-100.00,East,85,11.0,20.0,71,0.00,,,0.00,475.000000,,2013-01-27 21:33:00,
2013-01-27 17:03:00,75.0,67.0,-100.00,ENE,76,9.0,19.0,75,0.00,,,0.00,261.000000,,2013-01-27 22:03:00,
2013-01-27 17:12:00,75.0,67.0,-100.00,ENE,76,9.0,19.0,75,0.00,,,0.00,261.000000,,2013-01-27 22:12:00,
2013-01-27 17:22:00,75.0,67.0,-100.00,ENE,76,9.0,19.0,75,0.00,,,0.00,261.000000,,2013-01-27 22:22:00,
2013-01-27 17:32:00,75.0,67.0,-100.00,ENE,76,9.0,19.0,75,0.00,,,0.00,261.000000,,2013-01-27 22:32:00,
2013-01-27 17:52:00,74.0,67.0,-100.00,East,80,9.0,17.0,80,0.00,,,0.00,106.000000,,2013-01-27 22:52:00,
2013-01-27 18:02:00,74.0,67.0,-100.00,East,80,9.0,17.0,80,0.00,,,0.00,106.000000,,2013-01-27 23:02:00,
2013-01-27 18:12:00,74.0,67.0,-100.00,East,80,9.0,17.0,80,0.00,,,0.00,106.000000,,2013-01-27 23:12:00,
2013-01-27 18:22:00,74.0,67.0,-100.00,East,80,9.0,17.0,80,0.00,,,0.00,106.000000,,2013-01-27 23:22:00,
2013-01-27 18:32:00,74.0,67.0,-100.00,East,80,9.0,17.0,80,0.00,,,0.00,106.000000,,2013-01-27 23:32:00,
2013-01-27 18:53:00,73.0,68.0,-100.00,East,82,8.0,16.0,83,0.00,,,0.00,7.000000,,2013-01-27 23:53:00,
2013-01-27 19:02:00,73.0,68.0,-100.00,East,82,8.0,16.0,83,0.00,,,0.00,7.000000,,2013-01-28 00:02:00,
2013-01-27 19:12:00,73.0,68.0,-100.00,East,82,8.0,16.0,83,0.00,,,0.00,7.000000,,2013-01-28 00:12:00,
2013-01-27 19:22:00,73.0,68.0,-100.00,East,82,8.0,16.0,83,0.00,,,0.00,7.000000,,2013-01-28 00:22:00,
2013-01-27 19:32:00,73.0,68.0,-100.00,East,82,8.0,16.0,83,0.00,,,0.00,7.000000,,2013-01-28 00:32:00,
2013-01-27 19:52:00,73.0,68.0,-100.00,ENE,75,8.0,15.0,83,0.00,,,0.00,0.000000,,2013-01-28 00:52:00,
2013-01-27 20:02:00,73.0,68.0,-100.00,ENE,75,8.0,15.0,83,0.00,,,0.00,0.000000,,2013-01-28 01:02:00,
2013-01-27 20:12:00,73.0,68.0,-100.00,ENE,75,8.0,15.0,83,0.00,,,0.00,0.000000,,2013-01-28 01:12:00,
2013-01-27 20:22:00,73.0,68.0,-100.00,ENE,75,8.0,15.0,83,0.00,,,0.00,0.000000,,2013-01-28 01:22:00,
2013-01-27 20:33:00,73.0,68.0,-100.00,ENE,75,8.0,15.0,83,0.00,,,0.00,0.000000,,2013-01-28 01:33:00,
2013-01-27 21:02:00,72.0,67.0,-100.00,ENE,71,8.0,15.0,84,0.00,,,0.00,0.000000,,2013-01-28 02:02:00,
2013-01-27 21:12:00,72.0,67.0,-100.00,ENE,71,8.0,15.0,84,0.00,,,0.00,0.000000,,2013-01-28 02:12:00,
2013-01-27 21:22:00,72.0,67.0,-100.00,ENE,71,8.0,15.0,84,0.00,,,0.00,0.000000,,2013-01-28 02:22:00,
2013-01-27 21:32:00,72.0,67.0,-100.00,ENE,71,8.0,15.0,84,0.00,,,0.00,0.000000,,2013-01-28 02:32:00,
2013-01-27 22:02:00,72.0,67.0,-100.00,ENE,75,8.0,14.0,85,0.00,,,0.00,0.000000,,2013-01-28 03:02:00,
2013-01-27 22:12:00,72.0,67.0,-100.00,ENE,75,8.0,14.0,85,0.00,,,0.00,0.000000,,2013-01-28 03:12:00,
2013-01-27 22:22:00,72.0,67.0,-100.00,ENE,75,8.0,14.0,85,0.00,,,0.00,0.000000,,2013-01-28 03:22:00,
2013-01-27 22:32:00,72.0,67.0,-100.00,ENE,75,8.0,14.0,85,0.00,,,0.00,0.000000,,2013-01-28 03:32:00,
2013-01-27 23:02:00,72.0,68.0,-100.00,ENE,73,9.0,14.0,86,0.00,,,0.00,0.000000,,2013-01-28 04:02:00,
2013-01-27 23:12:00,72.0,68.0,-100.00,ENE,73,9.0,14.0,86,0.00,,,0.00,0.000000,,2013-01-28 04:12:00,
2013-01-27 23:22:00,72.0,68.0,-100.00,ENE,73,9.0,14.0,86,0.00,,,0.00,0.000000,,2013-01-28 04:22:00,
2013-01-27 23:32:00,72.0,68.0,-100.00,ENE,73,9.0,14.0,86,0.00,,,0.00,0.000000,,2013-01-28 04:32:00,
2013-01-27 23:52:00,72.0,67.0,-100.00,East,85,8.0,15.0,85,0.00,,,0.00,0.000000,,2013-01-28 04:52:00,